Location: Unspecified
(0.0000°N, 0.0000°E)
Time: 07:48:25
(UTC+00:00)

Courier 1B - Pass Details

Date: 03 October 2023
Orbit: 962 x 1208 km, 28.3° (Epoch: 06 December)

Event Time Altitude Azimuth Distance (km) Brightness Sun altitude
Rises 15:59:07 0° 322° (NW) 4,092 11.2 27.4°
Reaches altitude 10° 16:02:41 10° 336° (NNW) 3,135 10.5 26.5°
Maximum altitude 16:08:37 23° 25° (NNE) 2,294 9.3 25.0°
Drops below altitude 10° 16:14:28 10° 75° (ENE) 3,096 9.6 23.6°
Sets 16:17:57 0° 89° (E) 4,029 10.1 22.7°
